Change the Weather History Date:

Thursday, April 24, 2014

  Actual Average (KAUO) Record (KAUO)
Temperature  
Mean Temperature 67 °F -  
Max Temperature 84 °F - 88 °F (1970)
Min Temperature 50 °F - 33 °F (1959)
Degree Days  
Heating Degree Days 0    
Month to date heating degree days  
Since 1 July heating degree days  
Cooling Degree Days 2    
Month to date cooling degree days  
Year to date cooling degree days  
Growing Degree Days 17 (Base 50)    
Moisture  
Dew Point 49 °F    
Average Humidity 54    
Maximum Humidity 85    
Minimum Humidity 24    
Precipitation  
Precipitation 0.00 in - 3.62 in (2001)
Month to date precipitation  
Year to date precipitation  
Sea Level Pressure  
Sea Level Pressure 29.96 in    
Wind  
Wind Speed 2 mph (SSE)    
Max Wind Speed 12 mph    
Max Gust Speed 17 mph    
Visibility 10 miles    
Events      
T = Trace of Precipitation, MM = Missing Value Source: NWS Daily Summary

Daily Weather History Graph

Daily Weather History Graph

Search for Another Location

Airport or City:

Trip Planner

Search our weather history database for the weather conditions in past years. The results will help you decide how hot, cold, wet, or windy it might be!

Date:

Astronomy

Apr. 24, 2014 Rise Set
Actual Time 6:03 AM CDT 7:20 PM CDT
Civil Twilight 5:37 AM CDT 7:46 PM CDT
Nautical Twilight 5:07 AM CDT 8:17 PM CDT
Astronomical Twilight 4:35 AM CDT 8:49 PM CDT
Moon 2:58 AM CDT (4/24) 2:50 PM CDT (4/24)
Length of Visible Light 14h 08m
Length of Day
13h 16m
Waning Crescent, 24% of the Moon is Illuminated
Apr 24
Waning Crescent
Apr 29
New
May 6
First Quarter
May 14
Full
May 21
Last Quarter

Hourly Weather History & Observations

Time (CDT) Temp. Dew Point Humidity Pressure Visibility Wind Dir Wind Speed Gust Speed Precip Events Conditions
12:15 AM 55.4 °F 48.6 °F 78% 29.96 in 10.0 mi Calm Calm - N/A   Clear
12:35 AM 54.1 °F 47.8 °F 79% 29.96 in 10.0 mi Calm Calm - N/A   Clear
12:55 AM 55.4 °F 48.4 °F 77% 29.96 in 10.0 mi Calm Calm - N/A   Clear
1:15 AM 52.7 °F 46.8 °F 80% 29.96 in 10.0 mi Calm Calm - N/A   Clear
1:35 AM 55.4 °F 49.1 °F 79% 29.96 in 10.0 mi Calm Calm - N/A   Clear
1:55 AM 54.7 °F 48.7 °F 80% 29.96 in 10.0 mi Calm Calm - N/A   Clear
2:15 AM 55.4 °F 48.7 °F 78% 29.96 in 10.0 mi Calm Calm - N/A   Clear
2:35 AM 55.4 °F 46.4 °F 72% 29.96 in 10.0 mi North 4.6 mph - N/A   Clear
2:55 AM 55.2 °F 47.1 °F 74% 29.96 in 10.0 mi Calm Calm - N/A   Clear
3:15 AM 50.9 °F 44.8 °F 80% 29.96 in 10.0 mi Calm Calm - N/A   Clear
3:35 AM 51.4 °F 45.7 °F 81% 29.97 in 10.0 mi Calm Calm - N/A   Clear
3:55 AM 50.2 °F 44.8 °F 82% 29.97 in 10.0 mi Calm Calm - N/A   Clear
4:15 AM 51.1 °F 45.3 °F 81% 29.97 in 10.0 mi Calm Calm - N/A   Clear
4:35 AM 52.7 °F 46.2 °F 79% 29.97 in 10.0 mi North 3.5 mph - N/A   Clear
4:55 AM 55.4 °F 46.8 °F 73% 29.98 in 10.0 mi Calm Calm - N/A   Clear
5:15 AM 52.7 °F 45.5 °F 76% 29.98 in 10.0 mi Calm Calm - N/A   Clear
5:35 AM 50.2 °F 44.6 °F 81% 29.99 in 10.0 mi Calm Calm - N/A   Clear
5:55 AM 50.5 °F 45.1 °F 82% 30.00 in 10.0 mi Calm Calm - N/A   Clear
6:15 AM 50.2 °F 44.8 °F 82% 30.00 in 10.0 mi Calm Calm - N/A   Scattered Clouds
6:35 AM 50.2 °F 45.5 °F 84% 30.01 in 10.0 mi Calm Calm - N/A   Clear
6:55 AM 50.2 °F 45.7 °F 85% 30.01 in 10.0 mi Calm Calm - N/A   Clear
7:15 AM 55.4 °F 47.7 °F 75% 30.01 in 10.0 mi Calm Calm - N/A   Clear
7:35 AM 57.7 °F 44.2 °F 61% 30.01 in 10.0 mi Calm Calm - N/A   Clear
7:55 AM 60.3 °F 42.6 °F 52% 30.02 in 10.0 mi Calm Calm - N/A   Clear
8:15 AM 61.7 °F 40.1 °F 45% 30.02 in 10.0 mi ENE 3.5 mph - N/A   Clear
8:35 AM 63.3 °F 39.2 °F 41% 30.03 in 10.0 mi Calm Calm - N/A   Clear
8:55 AM 66.0 °F 40.8 °F 40% 30.03 in 10.0 mi East 3.5 mph - N/A   Scattered Clouds
9:15 AM 70.7 °F 43.7 °F 38% 30.03 in 10.0 mi East 3.5 mph - N/A   Scattered Clouds
9:35 AM 70.7 °F 42.6 °F 36% 30.03 in 10.0 mi East 3.5 mph - N/A   Scattered Clouds
9:55 AM 74.7 °F 44.6 °F 34% 30.03 in 10.0 mi ENE 3.5 mph - N/A   Clear
10:15 AM 75.6 °F 42.4 °F 31% 30.03 in 10.0 mi East 3.5 mph - N/A   Clear
10:35 AM 75.9 °F 42.3 °F 30% 30.02 in 10.0 mi East 4.6 mph - N/A   Clear
10:55 AM 78.1 °F 41.5 °F 27% 30.02 in 10.0 mi SSW 4.6 mph - N/A   Clear
11:15 AM 79.2 °F 41.9 °F 27% 30.02 in 10.0 mi SSE 4.6 mph - N/A   Clear
11:35 AM 80.4 °F 43.9 °F 27% 30.01 in 10.0 mi SSE 3.5 mph - N/A   Clear
11:55 AM 80.6 °F 43.5 °F 27% 30.01 in 10.0 mi SSE 5.8 mph - N/A   Clear
12:15 PM 80.6 °F 42.4 °F 26% 29.99 in 10.0 mi SE 5.8 mph - N/A   Clear
12:35 PM 80.6 °F 43.3 °F 27% 29.98 in 10.0 mi South 3.5 mph - N/A   Clear
12:55 PM 83.3 °F 43.5 °F 25% 29.98 in 10.0 mi SSE 8.1 mph - N/A   Clear
1:15 PM 83.3 °F 43.2 °F 24% 29.98 in 10.0 mi SW 11.5 mph - N/A   Clear
1:35 PM 82.4 °F 43.3 °F 25% 29.98 in 10.0 mi South 6.9 mph - N/A   Clear
1:55 PM 81.7 °F 44.8 °F 27% 29.97 in 10.0 mi SW 5.8 mph - N/A   Clear
2:15 PM 83.5 °F 44.6 °F 25% 29.96 in 10.0 mi SSW 8.1 mph 16.1 mph N/A   Clear
2:35 PM 83.5 °F 46.6 °F 27% 29.96 in 10.0 mi South 6.9 mph 16.1 mph N/A   Scattered Clouds
2:55 PM 82.4 °F 46.9 °F 29% 29.95 in 10.0 mi South 6.9 mph - N/A   Scattered Clouds
3:15 PM 83.3 °F 47.3 °F 28% 29.94 in 10.0 mi SSW 6.9 mph - N/A   Scattered Clouds
3:35 PM 83.3 °F 46.2 °F 27% 29.93 in 10.0 mi SSW 5.8 mph 17.3 mph N/A   Clear
3:55 PM 83.3 °F 46.4 °F 27% 29.93 in 10.0 mi South 5.8 mph - N/A   Clear
4:15 PM 84.4 °F 46.0 °F 26% 29.92 in 10.0 mi SSE 8.1 mph - N/A   Scattered Clouds
4:35 PM 83.3 °F 46.2 °F 27% 29.92 in 10.0 mi South 6.9 mph - N/A   Clear
4:55 PM 83.3 °F 46.9 °F 28% 29.91 in 10.0 mi South 5.8 mph - N/A   Clear
5:15 PM 83.3 °F 48.0 °F 29% 29.91 in 10.0 mi Calm Calm - N/A   Clear
5:35 PM 82.8 °F 48.4 °F 30% 29.90 in 10.0 mi South 6.9 mph - N/A   Clear
5:55 PM 81.9 °F 49.1 °F 32% 29.90 in 10.0 mi SSE 4.6 mph - N/A   Clear
6:15 PM 81.0 °F 49.8 °F 34% 29.89 in 10.0 mi SSE 3.5 mph - N/A   Clear
6:35 PM 80.6 °F 51.6 °F 36% 29.89 in 10.0 mi Calm Calm - N/A   Clear
6:55 PM 78.1 °F 52.7 °F 41% 29.89 in 10.0 mi Calm Calm - N/A   Clear
7:15 PM 75.6 °F 58.8 °F 56% 29.89 in 10.0 mi Calm Calm - N/A   Scattered Clouds
7:35 PM 75.6 °F 57.9 °F 54% 29.89 in 10.0 mi Calm Calm - N/A   Scattered Clouds
7:55 PM 71.1 °F 59.2 °F 66% 29.89 in 10.0 mi Calm Calm - N/A   Clear
8:15 PM 71.2 °F 58.3 °F 64% 29.90 in 10.0 mi Calm Calm - N/A   Scattered Clouds
8:35 PM 70.7 °F 61.7 °F 73% 29.89 in 10.0 mi East 3.5 mph - N/A   Scattered Clouds
8:55 PM 70.7 °F 61.0 °F 71% 29.88 in 10.0 mi Calm Calm - N/A   Clear
9:15 PM 70.7 °F 59.4 °F 67% 29.90 in 10.0 mi Calm Calm - N/A   Scattered Clouds
9:35 PM 70.7 °F 61.5 °F 73% 29.91 in 10.0 mi Calm Calm - N/A   Scattered Clouds
9:55 PM 70.7 °F 60.8 °F 71% 29.92 in 10.0 mi Calm Calm - N/A   Scattered Clouds
10:15 PM 70.3 °F 62.6 °F 76% 29.93 in 10.0 mi Calm Calm - N/A   Scattered Clouds
10:35 PM 70.7 °F 60.3 °F 69% 29.92 in 10.0 mi SSW 5.8 mph - N/A   Scattered Clouds
10:55 PM 70.7 °F 58.3 °F 65% 29.91 in 10.0 mi SSW 4.6 mph - N/A   Clear
11:15 PM 70.7 °F 59.9 °F 69% 29.91 in 10.0 mi SW 5.8 mph - N/A   Clear
11:35 PM 70.7 °F 59.4 °F 67% 29.90 in 10.0 mi SSW 5.8 mph - N/A   Clear
11:55 PM 70.7 °F 59.0 °F 66% 29.91 in 10.0 mi SW 6.9 mph - N/A   Clear